Weather Roundup
Issued by NWS Corpus Christi, TX

Home | Current Version | Previous Version | Text Only | Print | Product List | Glossary On
Versions: 1 2 3 4 5 6 7 8 9 10 11 12 13 14 15 16 17 18 19 20 21 22 23 24 25 26 27 28 29 30 31 32 33 34 35 36 37 38 39 40 41 42 43 44 45 46 47 48 49 50
000
ASUS44 KCRP 291410
HRRCRP

SOUTH TEXAS REGIONAL WEATHER ROUNDUP
NATIONAL WEATHER SERVICE CORPUS CHRISTI TX
900 AM CDT MON AUG 29 2016


TXZ229>244-291500-
...CORPUS CHRISTI AREA OBSERVATIONS...

CITY           SKY/WX    TMP DP  RH WIND       PRES   REMARKS
CORPUS CHRISTI CLOUDY    77  74  90 N10       29.95R
NAS CORPUS CHR CLOUDY    78  77  96 N13       29.93R
ROCKPORT       MOSUNNY   80  74  81 N13       29.92S
ALICE          CLOUDY    78  74  87 N7        29.95R
FALFURRIAS     PTSUNNY   79  73  81 N8        29.95R
$$

...VICTORIA AREA OBSERVATIONS...

CITY           SKY/WX    TMP DP  RH WIND       PRES   REMARKS
VICTORIA       CLOUDY    76  74  93 NE9       29.96R
BEEVILLE       CLOUDY    72  72 100 NE9       29.97R
PLEASANTON     MOSUNNY   75  72  89 N5        30.00R
SAN ANTONIO    CLOUDY    76  71  85 N10       30.02R
$$

...LAREDO AREA OBSERVATIONS...

CITY           SKY/WX    TMP DP  RH WIND       PRES   REMARKS
LAREDO         SUNNY     79  73  82 NE12      29.98R
COTULLA        CLOUDY    78  71  79 NE7       30.00R
DEL RIO        CLOUDY    77  72  84 E5        30.02R
MCALLEN        SUNNY     87  74  64 N7        29.94R HX  95
HEBBRONVILLE   MOSUNNY   78  73  86 NE6       29.99R
$$

...OTHER TEXAS OBSERVATIONS...

CITY           SKY/WX    TMP DP  RH WIND       PRES   REMARKS
BROWNSVILLE    SUNNY     83  76  79 NW7       29.93R HX  91
HOUSTON        PTSUNNY   76  72  87 NE13      29.97R
COL. STATION   CLOUDY    78  73  84 NE8       30.01R
AUSTIN         CLOUDY    77  72  84 N12       30.03R
WACO           LGT RAIN  74  73  97 N7        30.06S
FORT WORTH     PTSUNNY   80  72  76 NE5       30.08R
WICHITA FALLS  MOSUNNY   75  69  81 E6        30.12R
LUBBOCK        CLOUDY    67  63  87 N8        30.19R
EL PASO        MOSUNNY   70  61  73 CALM      30.16R
$$

...MARINE OBSERVATIONS...

STATION/POSITION TIME  SKY/WX   TEMP    WIND        PRES    VSBY  WAVE   SWELL
                                AIR SEA DIR/SP/G                  HT/PER HT/PER
                 (UTC)          (F)     (DEG/KT/KT) (MB)    (MI)  (FT/S) (FT/S)
PORT ARANSAS     1400            79 86  350/ 11/ 13 1013.1R
BUOY 90 E PORT A 1350            83 86   40/ 14/ 16 1012.3R         3/ 5   2/ 9
BUOY 45 SE BAFFI 1350            81 86  300/ 12/ 16 1012.2R         2/ 5   2/ 6
BUOY 200 E PT IS 1350            85 87  320/  2/  4 1011.5R         2/ 6   2/ 6
BUOY 15 E GALVES 1350            80 85  130/ 10/ 16 1013.4R         4/ 6   3/ 6
$$



USA.gov is the U.S. government's official web portal to all federal, state and local government web resources and services.